Track SL-14 R/B now! 10-day predictions SL-14 R/B is classified as:
1 16882U 86055B 22226.60183927 .00000197 00000-0 21023-4 0 9998 2 16882 82.5193 269.1782 0018682 319.2861 156.2908 14.83437897926074